Location: Petruro
(41.0333°N, 14.7833°E)
Time: 12:19:30
(UTC+00:00)

DELTA 2 R/B (1) - Pass Details

Date: 28 October 2021
Orbit: 790 x 802 km, 39.6° (Epoch: 29 November)

Event Time Altitude Azimuth Distance (km) Brightness Sun altitude
Rises 17:45:01 0° 228° (SW) 3,293 7.5 -20.1°
Reaches altitude 10° 17:47:39 10° 220° (SW) 2,364 6.5 -20.6°
Maximum altitude 17:52:44 37° 154° (SSE) 1,220 4.3 -21.5°
Enters shadow 17:53:28 35° 137° (SE) 1,254 4.2 -21.6°
